FW4624 Weather Reports


time (UTC)temp
C
wind
direction
speed
KPH
gust
KPH
rain 1hr
cm
rain 24hr
cm
rain mn
cm
humidity
%
barometer
mb
20260509182529 18 349 1.6 6.4 0.00 0.00 0.00 54 1015.3
20260509182029 18 349 1.6 6.4 0.00 0.00 0.00 54 1015.4
20260509181529 18 350 1.6 4.8 0.00 0.00 0.00 54 1015.4
20260509181029 19 350 1.6 4.8 0.00 0.00 0.00 53 1015.4
20260509180529 19 350 1.6 6.4 0.00 0.00 0.00 53 1015.3
20260509180044 19 350 1.6 4.8 0.00 0.00 0.00 52 1015.4
20260509175529 19 350 1.6 6.4 0.00 0.00 0.00 52 1015.3
20260509175029 19 350 3.2 6.4 0.00 0.00 0.00 52 1015.3
20260509174530 19 355 1.6 6.4 0.00 0.00 0.00 51 1015.3
20260509174028 20 355 3.2 6.4 0.00 0.00 0.00 51 1015.3
20260509173528 20 360 3.2 6.4 0.00 0.00 0.00 49 1015.3
20260509173027 20 360 3.2 8.0 0.00 0.00 0.00 48 1015.3
20260509172529 20 348 1.6 8.0 0.00 0.00 0.00 49 1015.4
20260509172026 20 351 1.6 6.4 0.00 0.00 0.00 49 1015.4
20260509171527 20 348 0.0 8.0 0.00 0.00 0.00 49 1015.5
20260509171026 20 348 3.2 8.0 0.00 0.00 0.00 48 1015.6
20260509170526 20 348 1.6 4.8 0.00 0.00 0.00 50 1015.6
20260509170044 20 348 1.6 4.8 0.00 0.00 0.00 49 1015.7
20260509165525 20 348 0.0 4.8 0.00 0.00 0.00 51 1015.6
20260509165024 20 348 0.0 4.8 0.00 0.00 0.00 48 1015.7
20260509164524 20 348 0.0 4.8 0.00 0.00 0.00 47 1015.8
20260509164024 20 346 0.0 8.0 0.00 0.00 0.00 50 1015.8
20260509163525 20 346 3.2 8.0 0.00 0.00 0.00 49 1015.8
20260509163026 20 348 1.6 6.4 0.00 0.00 0.00 49 1015.8
20260509162522 20 348 3.2 8.0 0.00 0.00 0.00 48 1015.9
20260509162022 20 348 3.2 8.0 0.00 0.00 0.00 46 1015.9
20260509161522 20 25 3.2 8.0 0.00 0.00 0.00 48 1016.0
20260509161020 20 34 3.2 8.0 0.00 0.00 0.00 47 1016.1
20260509160520 21 338 1.6 8.0 0.00 0.00 0.00 49 1016.1
20260509160020 21 338 0.0 8.0 0.00 0.00 0.00 49 1016.2
20260509155520 21 337 0.0 6.4 0.00 0.00 0.00 48 1016.3
20260509155020 21 337 3.2 6.4 0.00 0.00 0.00 47 1016.2
20260509154519 20 336 0.0 4.8 0.00 0.00 0.00 47 1016.3
20260509154022 21 335 1.6 6.4 0.00 0.00 0.00 47 1016.3
20260509153518 21 335 0.0 6.4 0.00 0.00 0.00 49 1016.3
20260509153020 21 334 3.2 12.9 0.00 0.00 0.00 47 1016.4
20260509152517 21 337 3.2 12.9 0.00 0.00 0.00 45 1016.5
20260509152019 21 264 0.0 4.8 0.00 0.00 0.00 45 1016.5
20260509151516 21 263 1.6 4.8 0.00 0.00 0.00 49 1016.5
20260509151015 21 261 1.6 4.8 0.00 0.00 0.00 47 1016.7
20260509150519 21 261 1.6 4.8 0.00 0.00 0.00 46 1016.6
20260509150015 21 329 0.0 6.4 0.00 0.00 0.00 48 1016.6
20260509145515 20 329 1.6 6.4 0.00 0.00 0.00 48 1016.7
20260509145016 21 26 3.2 6.4 0.00 0.00 0.00 46 1016.7
20260509144518 21 340 1.6 6.4 0.00 0.00 0.00 50 1016.6
20260509144013 21 340 1.6 4.8 0.00 0.00 0.00 46 1016.7
20260509143513 21 340 0.0 3.2 0.00 0.00 0.00 49 1016.8
20260509143017 21 340 0.0 4.8 0.00 0.00 0.00 47 1016.9
20260509142512 21 340 0.0 8.0 0.00 0.00 0.00 48 1016.9
20260509142015 21 340 1.6 8.0 0.00 0.00 0.00 51 1017.0
20260509141521 21 85 3.2 9.7 0.00 0.00 0.00 49 1017.0
20260509141009 21 92 4.8 9.7 0.00 0.00 0.00 48 1017.1
20260509140509 21 78 1.6 4.8 0.00 0.00 0.00 47 1017.2
20260509140008 22 16 1.6 6.4 0.00 0.00 0.00 47 1017.2
20260509135510 20 17 1.6 6.4 0.00 0.00 0.00 50 1017.3
20260509135009 20 340 3.2 8.0 0.00 0.00 0.00 48 1017.3
20260509134522 20 340 3.2 8.0 0.00 0.00 0.00 48 1017.5
20260509134006 21 334 1.6 12.9 0.00 0.00 0.00 48 1017.5
20260509133506 20 335 4.8 12.9 0.00 0.00 0.00 50 1017.5
20260509133005 21 349 4.8 12.9 0.00 0.00 0.00 48 1017.5
20260509132510 21 355 4.8 9.7 0.00 0.00 0.00 48 1017.8
20260509132003 21 259 0.0 6.4 0.00 0.00 0.00 47 1017.8
20260509131506 21 259 1.6 11.3 0.00 0.00 0.00 50 1017.9
20260509131003 21 259 3.2 11.3 0.00 0.00 0.00 47 1018.0
20260509130502 21 338 0.0 9.7 0.00 0.00 0.00 48 1018.1
20260509130002 20 67 0.0 9.7 0.00 0.00 0.00 49 1018.2
20260509125501 20 148 4.8 9.7 0.00 0.00 0.00 51 1018.3
20260509125101 20 355 3.2 8.0 0.00 0.00 0.00 48 1018.4
20260509124600 20 74 3.2 8.0 0.00 0.00 0.00 50 1018.3
20260509124100 21 90 3.2 9.7 0.00 0.00 0.00 48 1018.4
20260509123601 20 174 3.2 6.4 0.00 0.00 0.00 47 1018.5
20260509123057 21 167 0.0 9.7 0.00 0.00 0.00 52 1018.5
20260509122558 20 165 3.2 9.7 0.00 0.00 0.00 55 1018.5
20260509122056 20 166 3.2 8.0 0.00 0.00 0.00 51 1018.6
20260509121556 20 166 4.8 8.0 0.00 0.00 0.00 52 1018.6
20260509121059 20 174 3.2 8.0 0.00 0.00 0.00 54 1018.7
20260509120555 20 42 1.6 12.9 0.00 0.00 0.00 53 1018.8
20260509120059 19 46 4.8 12.9 0.00 0.00 0.00 51 1019.0
20260509115554 20 30 1.6 8.0 0.00 0.00 0.00 53 1018.9
20260509115053 19 55 3.2 8.0 0.00 0.00 0.00 52 1019.0
20260509114553 20 138 1.6 6.4 0.00 0.00 0.00 54 1019.0
20260509114052 19 132 3.2 6.4 0.00 0.00 0.00 53 1019.0
20260509113555 18 28 1.6 8.0 0.00 0.00 0.00 54 1019.0
20260509113051 19 9 1.6 8.0 0.00 0.00 0.00 55 1019.1
20260509112550 18 41 3.2 8.0 0.00 0.00 0.00 54 1019.2
20260509112049 20 105 0.0 6.4 0.00 0.00 0.00 54 1019.3
20260509111549 20 105 0.0 6.4 0.00 0.00 0.00 55 1019.4
20260509111048 19 96 1.6 6.4 0.00 0.00 0.00 56 1019.4
20260509110547 19 9 1.6 8.0 0.00 0.00 0.00 55 1019.5
20260509110048 18 68 3.2 6.4 0.00 0.00 0.00 55 1019.5
20260509105546 18 360 3.2 12.9 0.00 0.00 0.00 55 1019.6
20260509105045 18 9 1.6 12.9 0.00 0.00 0.00 56 1019.6
20260509104601 18 30 1.6 6.4 0.00 0.00 0.00 57 1019.6
20260509104044 18 91 3.2 6.4 0.00 0.00 0.00 57 1019.8
20260509103543 18 99 1.6 11.3 0.00 0.00 0.00 58 1019.8
20260509103045 18 99 3.2 11.3 0.00 0.00 0.00 57 1019.8
20260509102543 18 64 3.2 8.0 0.00 0.00 0.00 57 1019.8
20260509102042 18 347 1.6 8.0 0.00 0.00 0.00 59 1019.9
20260509101543 17 350 3.2 8.0 0.00 0.00 0.00 59 1019.9
20260509101042 17 42 3.2 8.0 0.00 0.00 0.00 61 1020.0
20260509100543 17 122 1.6 12.9 0.00 0.00 0.00 63 1020.1
20260509100042 17 132 6.4 12.9 0.00 0.00 0.00 61 1020.2
20260509095543 17 338 1.6 12.9 0.00 0.00 0.00 61 1020.2
20260509095042 18 336 1.6 8.0 0.00 0.00 0.00 61 1020.2
20260509094542 17 347 1.6 8.0 0.00 0.00 0.00 63 1020.3
20260509094039 17 355 1.6 8.0 0.00 0.00 0.00 67 1020.3
20260509093539 17 360 3.2 9.7 0.00 0.00 0.00 64 1020.4
20260509093038 17 13 1.6 9.7 0.00 0.00 0.00 67 1020.3
20260509092541 16 355 1.6 6.4 0.00 0.00 0.00 65 1020.3
20260509092036 16 342 1.6 8.0 0.00 0.00 0.00 67 1020.3
20260509091540 16 338 3.2 8.0 0.00 0.00 0.00 66 1020.4
20260509091036 16 73 1.6 8.0 0.00 0.00 0.00 66 1020.4
20260509090535 16 11 0.0 6.4 0.00 0.00 0.00 70 1020.4
20260509090048 15 5 3.2 6.4 0.00 0.00 0.00 69 1020.4
20260509085533 16 360 3.2 6.4 0.00 0.00 0.00 72 1020.4
20260509085033 15 360 3.2 6.4 0.00 0.00 0.00 70 1020.4
20260509084533 15 38 1.6 8.0 0.00 0.00 0.00 72 1020.4
20260509084033 14 5 3.2 8.0 0.00 0.00 0.00 73 1020.4
20260509083531 15 360 3.2 8.0 0.00 0.00 0.00 70 1020.5
20260509083031 14 67 1.6 12.9 0.00 0.00 0.00 72 1020.4
20260509082530 14 52 0.0 12.9 0.00 0.00 0.00 74 1020.5
20260509082028 14 345 0.0 6.4 0.00 0.00 0.00 77 1020.5
20260509081540 13 5 3.2 8.0 0.00 0.00 0.00 75 1020.5
20260509081026 13 55 0.0 8.0 0.00 0.00 0.00 78 1020.5
20260509080525 13 347 1.6 8.0 0.00 0.00 0.00 78 1020.5
20260509080025 12 347 3.2 8.0 0.00 0.00 0.00 79 1020.5
20260509075524 12 336 3.2 8.0 0.00 0.00 0.00 80 1020.5
20260509075023 12 349 3.2 9.7 0.00 0.00 0.00 81 1020.5
20260509074524 12 5 3.2 9.7 0.00 0.00 0.00 81 1020.6
20260509074022 12 37 1.6 8.0 0.00 0.00 0.00 83 1020.6
20260509073521 11 340 3.2 9.7 0.00 0.00 0.00 83 1020.6
20260509073035 11 339 3.2 9.7 0.00 0.00 0.00 84 1020.7
20260509072521 11 342 4.8 9.7 0.00 0.00 0.00 84 1020.6
20260509072018 11 336 4.8 9.7 0.00 0.00 0.00 85 1020.6
20260509071519 11 15 3.2 9.7 0.00 0.00 0.00 85 1020.7
20260509071016 10 341 3.2 8.0 0.00 0.00 0.00 85 1020.7
20260509070517 10 355 3.2 8.0 0.00 0.00 0.00 87 1020.7
20260509070030 10 355 3.2 8.0 0.00 0.00 0.00 88 1020.7
20260509065517 10 14 4.8 8.0 0.00 0.00 0.00 88 1020.8
20260509065010 9 355 3.2 8.0 0.00 0.00 0.00 89 1020.8
20260509064510 9 13 4.8 8.0 0.00 0.00 0.00 89 1020.9
20260509064008 8 5 3.2 8.0 0.00 0.00 0.00 90 1020.8
20260509063508 8 343 4.8 8.0 0.00 0.00 0.00 90 1020.6
20260509063012 8 346 3.2 8.0 0.00 0.00 0.00 90 1020.6
20260509062507 8 348 3.2 6.4 0.00 0.00 0.00 91 1020.6
20260509062007 8 349 1.6 8.0 0.00 0.00 0.00 91 1020.7
20260509061506 8 355 3.2 8.0 0.00 0.00 0.00 92 1020.6
20260509061007 7 5 1.6 6.4 0.00 0.00 0.00 91 1020.6
20260509060505 7 355 3.2 8.0 0.00 0.00 0.00 92 1020.5
20260509060006 7 342 4.8 8.0 0.00 0.00 0.00 91 1020.6
20260509055505 7 355 3.2 8.0 0.00 0.00 0.00 92 1020.5
20260509055007 7 340 4.8 8.0 0.00 0.00 0.00 92 1020.6
20260509054504 7 360 3.2 6.4 0.00 0.00 0.00 92 1020.5
20260509054003 7 5 3.2 6.4 0.00 0.00 0.00 92 1020.6
20260509053503 7 5 3.2 6.4 0.00 0.00 0.00 93 1020.5
20260509053005 7 5 3.2 6.4 0.00 0.00 0.00 93 1020.5
20260509052503 7 5 3.2 6.4 0.00 0.00 0.00 93 1020.3
20260509052002 7 35 3.2 6.4 0.00 0.00 0.00 93 1020.3
20260509051501 7 35 1.6 6.4 0.00 0.00 0.00 93 1020.2
20260509051100 6 35 1.6 6.4 0.00 0.00 0.00 93 1020.2
20260509050600 6 35 0.0 3.2 0.00 0.00 0.00 93 1020.0
20260509050059 6 35 0.0 1.6 0.00 0.00 0.00 93 1019.9
20260509045600 6 35 0.0 3.2 0.00 0.00 0.00 93 1019.9
20260509045100 6 35 0.0 3.2 0.00 0.00 0.00 93 1019.9
20260509044700 6 35 0.0 0.0 0.00 0.00 0.00 93 1019.9
20260509044100 6 35 0.0 0.0 0.00 0.00 0.00 93 1019.9
20260509043559 5 35 0.0 0.0 0.00 0.00 0.00 93 1019.9
20260509043058 5 35 0.0 0.0 0.00 0.00 0.00 93 1019.8
20260509042558 5 35 0.0 0.0 0.00 0.00 0.00 93 1019.8
20260509042100 5 35 0.0 0.0 0.00 0.00 0.00 93 1019.7
20260509041558 5 35 0.0 0.0 0.00 0.00 0.00 93 1019.7
20260509041059 5 35 0.0 0.0 0.00 0.00 0.00 93 1019.7
20260509040556 5 35 0.0 0.0 0.00 0.00 0.00 93 1019.7
20260509040057 5 35 0.0 0.0 0.00 0.00 0.00 93 1019.7
20260509035556 5 35 0.0 0.0 0.00 0.03 0.00 93 1019.7
20260509035056 5 35 0.0 0.0 0.00 0.03 0.00 93 1019.7
20260509034556 5 35 0.0 1.6 0.00 0.03 0.00 93 1019.7
20260509034055 5 35 0.0 3.2 0.00 0.03 0.00 93 1019.7
20260509033555 5 35 0.0 1.6 0.00 0.03 0.00 93 1019.7
20260509033054 6 35 0.0 1.6 0.00 0.03 0.00 93 1019.6
20260509032554 6 35 0.0 3.2 0.00 0.03 0.00 93 1019.6
20260509032053 6 35 0.0 3.2 0.00 0.03 0.00 93 1019.7
20260509031553 6 35 0.0 3.2 0.00 0.03 0.00 93 1019.8
20260509031053 6 35 0.0 0.0 0.00 0.03 0.00 93 1019.7
20260509030553 6 35 0.0 0.0 0.00 0.03 0.00 93 1019.8
20260509030055 6 35 0.0 1.6 0.00 0.03 0.00 93 1019.8
20260509025552 6 35 0.0 3.2 0.00 0.03 0.00 93 1019.8
20260509025053 6 35 1.6 4.8 0.00 0.03 0.00 93 1019.9
20260509024552 6 35 1.6 4.8 0.00 0.03 0.00 93 1020.0
20260509024053 6 35 1.6 4.8 0.00 0.03 0.00 93 1020.0
20260509023553 6 35 1.6 4.8 0.00 0.03 0.00 93 1020.0
20260509023051 6 35 0.0 4.8 0.00 0.03 0.00 93 1019.9
20260509022551 6 35 0.0 4.8 0.00 0.03 0.00 92 1019.9
20260509022051 5 35 0.0 4.8 0.00 0.03 0.00 92 1019.8
20260509021550 6 35 0.0 4.8 0.00 0.03 0.00 92 1019.8
20260509021049 6 35 1.6 4.8 0.00 0.03 0.00 92 1019.8
20260509020549 6 35 1.6 4.8 0.00 0.03 0.00 92 1019.8
20260509020055 6 35 0.0 0.0 0.00 0.03 0.00 92 1019.6
20260509015548 6 35 0.0 0.0 0.00 0.03 0.00 92 1019.6
20260509015048 6 35 0.0 1.6 0.00 0.03 0.00 92 1019.6
20260509014550 6 35 0.0 3.2 0.00 0.03 0.00 92 1019.7
20260509014049 6 35 1.6 4.8 0.00 0.03 0.00 92 1019.7
20260509013545 6 35 1.6 4.8 0.00 0.03 0.00 92 1019.8
20260509013043 6 35 1.6 4.8 0.00 0.03 0.00 92 1019.8
20260509012542 6 35 0.0 4.8 0.00 0.03 0.00 92 1019.8
20260509012043 7 35 0.0 3.2 0.00 0.03 0.00 92 1019.7
20260509011542 7 35 0.0 3.2 0.00 0.03 0.00 92 1019.7
20260509011041 7 35 0.0 3.2 0.00 0.03 0.00 92 1019.9
20260509010540 7 35 0.0 3.2 0.00 0.03 0.00 91 1019.7
20260509010040 7 35 1.6 4.8 0.00 0.03 0.00 91 1019.9
20260509005540 7 35 1.6 4.8 0.00 0.03 0.00 91 1019.9
20260509005040 7 35 0.0 4.8 0.00 0.03 0.00 91 1019.9
20260509004540 7 35 3.2 4.8 0.00 0.03 0.00 91 1019.9
20260509004039 7 35 1.6 4.8 0.00 0.03 0.00 91 1019.9
20260509003538 7 35 1.6 4.8 0.00 0.03 0.00 91 1019.9
20260509003042 7 35 1.6 4.8 0.00 0.03 0.00 91 1019.9
20260509002538 7 35 1.6 3.2 0.00 0.03 0.00 91 1020.0
20260509002040 7 35 1.6 3.2 0.00 0.03 0.00 91 1019.9
20260509001535 7 35 0.0 0.0 0.00 0.03 0.00 91 1019.9
20260509001035 7 35 0.0 0.0 0.00 0.03 0.00 91 1019.8
20260509000534 7 35 0.0 0.0 0.00 0.03 0.00 91 1019.9
20260509000034 7 35 0.0 0.0 0.00 0.03 0.00 91 1020.0
20260508235533 7 35 0.0 0.0 0.00 0.03 0.00 91 1019.9
20260508235033 7 35 0.0 0.0 0.00 0.03 0.00 91 1020.0
20260508234532 7 35 0.0 0.0 0.00 0.03 0.00 91 1020.0
20260508234034 7 35 0.0 0.0 0.00 0.03 0.00 91 1020.1
20260508233532 7 35 0.0 0.0 0.00 0.03 0.00 90 1019.9
20260508233031 7 35 0.0 0.0 0.00 0.03 0.00 90 1019.9
20260508232530 7 35 0.0 0.0 0.00 0.03 0.00 90 1020.0
20260508232030 7 35 0.0 0.0 0.00 0.03 0.00 90 1019.9
20260508231531 8 35 0.0 0.0 0.00 0.03 0.00 90 1020.0
20260508231029 8 35 0.0 0.0 0.00 0.03 0.00 90 1019.9
20260508230529 8 35 0.0 0.0 0.00 0.03 0.00 90 1019.9
20260508230029 8 35 0.0 0.0 0.00 0.03 0.00 90 1020.0
20260508225528 8 35 0.0 0.0 0.00 0.03 0.00 90 1020.0
20260508225029 8 35 0.0 0.0 0.00 0.03 0.00 89 1019.9
20260508224529 8 35 0.0 0.0 0.00 0.03 0.00 89 1019.9
20260508224026 8 35 0.0 3.2 0.00 0.03 0.00 89 1019.9
20260508223525 8 35 0.0 4.8 0.00 0.03 0.00 89 1019.9
20260508223028 8 35 0.0 4.8 0.00 0.03 0.00 88 1019.9
20260508222524 8 35 0.0 4.8 0.00 0.03 0.00 88 1019.9
20260508222023 8 35 1.6 4.8 0.00 0.03 0.00 88 1019.8
20260508221522 8 35 0.0 4.8 0.00 0.03 0.00 88 1019.8
20260508221030 8 35 1.6 4.8 0.00 0.03 0.00 88 1019.8
20260508220522 8 35 0.0 3.2 0.00 0.03 0.00 88 1019.8
20260508220020 8 35 1.6 3.2 0.00 0.03 0.00 89 1019.8
20260508215520 8 35 0.0 0.0 0.00 0.03 0.03 88 1019.6
20260508215020 8 35 0.0 0.0 0.00 0.03 0.03 88 1019.7
20260508214520 8 35 0.0 0.0 0.00 0.03 0.03 88 1019.6
20260508214020 8 35 0.0 1.6 0.00 0.03 0.03 88 1019.7
20260508213520 9 35 0.0 3.2 0.00 0.03 0.03 88 1019.6
20260508213024 9 35 0.0 3.2 0.00 0.03 0.03 87 1019.6
20260508212520 9 35 0.0 0.0 0.00 0.03 0.03 87 1019.5
20260508212019 9 35 0.0 1.6 0.00 0.03 0.03 87 1019.5
20260508211520 9 35 0.0 3.2 0.00 0.03 0.03 86 1019.3
20260508211020 9 35 0.0 3.2 0.00 0.03 0.03 87 1019.4
20260508210519 9 35 0.0 1.6 0.00 0.03 0.03 86 1019.4
20260508210019 10 35 0.0 0.0 0.00 0.03 0.03 86 1019.5
20260508205519 10 35 0.0 3.2 0.00 0.03 0.03 85 1019.4
20260508205023 10 35 0.0 3.2 0.00 0.03 0.03 85 1019.2
20260508204519 10 35 0.0 3.2 0.00 0.03 0.03 84 1019.4
20260508204019 10 35 0.0 3.2 0.00 0.03 0.03 84 1019.3
20260508203518 10 35 0.0 3.2 0.00 0.03 0.03 84 1019.2
20260508203018 10 35 0.0 3.2 0.00 0.03 0.03 83 1019.2
20260508202517 10 35 1.6 3.2 0.00 0.03 0.03 83 1019.2
20260508202018 10 35 0.0 1.6 0.00 0.03 0.03 83 1019.2
20260508201517 11 35 0.0 1.6 0.00 0.03 0.03 82 1019.2
20260508201017 11 35 0.0 4.8 0.00 0.03 0.03 81 1019.2
20260508200517 11 35 0.0 4.8 0.00 0.03 0.03 81 1019.2
20260508200021 11 35 1.6 4.8 0.00 0.03 0.03 80 1019.2
20260508195518 11 35 1.6 6.4 0.00 0.03 0.03 80 1019.1
20260508195017 11 36 3.2 4.8 0.00 0.03 0.03 79 1019.1
20260508194517 11 36 1.6 4.8 0.00 0.03 0.03 79 1019.0
20260508194018 11 36 1.6 4.8 0.00 0.03 0.03 78 1019.0
20260508193516 12 36 1.6 3.2 0.00 0.03 0.03 77 1018.9
20260508193017 12 36 1.6 4.8 0.00 0.03 0.03 77 1018.9
20260508192516 12 36 1.6 6.4 0.00 0.03 0.03 76 1018.8
20260508192021 12 36 1.6 4.8 0.00 0.03 0.03 75 1018.9
20260508191524 12 36 1.6 6.4 0.00 0.03 0.03 74 1018.7
20260508191017 13 30 1.6 6.4 0.00 0.03 0.03 73 1018.6
20260508190518 13 30 1.6 6.4 0.00 0.03 0.03 72 1018.6
20260508190022 13 30 1.6 6.4 0.00 0.03 0.03 72 1018.4
20260508185515 13 30 0.0 4.8 0.00 0.03 0.03 71 1018.3
20260508185015 13 30 0.0 6.4 0.00 0.03 0.03 71 1018.3
20260508184516 13 30 1.6 6.4 0.00 0.03 0.03 71 1018.3
20260508184015 14 18 1.6 4.8 0.00 0.03 0.03 70 1018.3
20260508183514 14 17 0.0 4.8 0.00 0.03 0.03 69 1018.2